Location: ??????
(42.0089°N, 44.3281°E)
Time: 13:43:45
(UTC+00:00)

NOSS 8 (H) - Pass Details

Date: 01 June 2022
Orbit: 366 x 1779 km, 63.3° (Epoch: 28 June)

Event Time Altitude Azimuth Distance (km) Brightness Sun altitude
Rises 19:20:24 0° 310° (NW) 2,656 9.4 -21.8°
Reaches altitude 10° 19:22:32 10° 297° (WNW) 1,916 8.3 -22.0°
Maximum altitude 19:26:11 27° 239° (WSW) 1,350 6.7 -22.2°
Enters shadow 19:27:02 26° 222° (SW) 1,447 6.7 -22.3°
